Location: Newark
(42.7133°N, 87.7910°W)
Time: 00:01:45
(UTC+00:00)

Tiros 1 - Pass Details

Date: 24 September 2019
Orbit: 630 x 664 km, 48.4° (Epoch: 16 October)

Event Time Altitude Azimuth Distance (km) Brightness Sun altitude
Rises 22:26:03 0° 296° (WNW) 2,953 11.4 13.6°
Reaches altitude 10° 22:28:24 10° 295° (WNW) 2,036 10.7 13.2°
Maximum altitude 22:33:05 82° 208° (SSW) 647 7.5 12.3°
Drops below altitude 10° 22:37:43 10° 122° (ESE) 2,009 9.3 11.5°
Sets 22:40:01 0° 121° (ESE) 2,911 10.1 11.1°
